This is the latest recevied weather packets stored in our database for station/object N8QF-1. If no packets are shown the sender has not sent any weather packets the latest 10 day(s).
| Time | Temp. | Humidity | Pressure | Rain* | Wind** | Luminosity | Snow |
|---|---|---|---|---|---|---|---|
| 1777973690 | 15.56° C | 83% | 1008.9 hPa | 0 mm | - | - | - |
| 1777973389 | 15.56° C | 82% | 1009 hPa | 0 mm | - | - | - |
| 1777973089 | 15.56° C | 81% | 1008.9 hPa | 0 mm | - | - | - |
| 1777972788 | 16.11° C | 80% | 1008.9 hPa | 0 mm | - | - | - |
| 1777972488 | 16.67° C | 77% | 1008.7 hPa | 0 mm | - | - | - |
| 1777972188 | 16.67° C | 74% | 1008.3 hPa | 0 mm | - | - | - |
| 1777971887 | 17.22° C | 71% | 1007.9 hPa | 0 mm | - | - | - |
| 1777971586 | 17.22° C | 70% | 1008.4 hPa | 0 mm | - | - | - |
| 1777971286 | 17.22° C | 70% | 1008 hPa | 0 mm | - | - | - |
| 1777970985 | 17.22° C | 69% | 1008.3 hPa | 0 mm | - | - | - |
| 1777970685 | 17.22° C | 68% | 1007.9 hPa | 0 mm | - | - | - |
| 1777970082 | 17.78° C | 67% | 1007.5 hPa | 0 mm | - | - | - |
| 1777969781 | 17.78° C | 67% | 1007.5 hPa | 0 mm | - | - | - |
| 1777969480 | 17.78° C | 64% | 1007.4 hPa | 0 mm | - | - | - |
| 1777969180 | 17.78° C | 64% | 1007.3 hPa | 0 mm | - | - | - |
| 1777968879 | 18.33° C | 62% | 1007.1 hPa | 0 mm | - | - | - |
| 1777968579 | 18.33° C | 60% | 1007.2 hPa | 0 mm | - | - | - |
| 1777967977 | 19.44° C | 54% | 1007.3 hPa | 0 mm | - | - | - |
| 1777967677 | 19.44° C | 53% | 1007.4 hPa | 0 mm | - | - | - |
| 1777967075 | 20° C | 51% | 1006.9 hPa | 0 mm | - | - | - |
| 1777966474 | 20° C | 51% | 1006.8 hPa | 0 mm | - | - | - |
| 1777966174 | 20° C | 51% | 1006.7 hPa | 0 mm | - | - | - |
| 1777965873 | 20° C | 51% | 1006.7 hPa | 0 mm | - | - | - |
| 1777965272 | 20° C | 50% | 1006.7 hPa | 0 mm | - | - | - |
| 1777964972 | 20° C | 49% | 1006.6 hPa | 0 mm | - | - | - |
* Rain latest hour (hover to see other rain measurements)
** Current wind speed in m/s (hover to see current wind gust speed)